Location: Festilli
(46.4000°N, 11.6667°E)
Time: 16:14:24
(UTC+00:00)

Nadezhda 3 Rocket - Pass Details

Date: 03 March 2021
Orbit: 957 x 999 km, 82.9° (Epoch: 15 April)

Event Time Altitude Azimuth Distance (km) Brightness Sun altitude
Rises 17:27:05 0° 355° (N) 3,725 7.1 -5.1°
Reaches altitude 10° 17:29:43 10° 0° (N) 2,775 6.4 -5.5°
Maximum altitude 17:35:54 50° 76° (ENE) 1,253 4.2 -6.6°
Drops below altitude 10° 17:42:03 10° 151° (SSE) 2,762 6.1 -7.6°
Sets 17:44:39 0° 156° (SSE) 3,705 6.8 -8.1°
